Location: Makanda
(37.6176°N, 89.2090°W)
Time: 19:59:30
(UTC+00:00)

GEOS 3 Rocket - Pass Details

Date: 23 September 2019
Orbit: 790 x 829 km, 115.0° (Epoch: 12 October)

Event Time Altitude Azimuth Distance (km) Brightness Sun altitude
Exits shadow 02:14:36 68° 223° (SW) 848 3.6 -27.9°
Maximum altitude 02:14:46 69° 237° (WSW) 845 3.7 -27.9°
Drops below altitude 10° 02:19:51 10° 321° (NW) 2,361 6.8 -28.8°
Sets 02:22:10 0° 324° (NW) 3,296 7.7 -29.3°
